Tracking 23610 objects as of 20-Sep-2021
HD Live streaming from Space Station
objects crossing your sky now

YAOGAN-30 X

Track YAOGAN-30 X now!
10-day predictions


NORAD ID: 48423
Int'l Code: 2021-039A
Perigee: 601.2 km
Apogee: 609.0 km
Inclination: 35.0 °
Period: 96.6 minutes
Semi major axis: 6976 km
RCS: Unknown
Launch date: May 6, 2021
Source: People's Republic of China (PRC)
Launch site: Xichang Space Center, China (XSC)
aabbcc
Your satellite tracking list
Your tracking list is empty




NASA's NSSDC Master Catalog

Two Line Element Set (TLE):
1 48423U 21039A   21262.78602463  .00000352  00000-0  38583-4 0  9996
2 48423  35.0013  20.6669 0005635 214.8559 145.1783 14.89988686 20285
Source of the keplerian elements: AFSPC